Perry Lake Weather Center

Moon Phase Calendar



Perry Lake Water Level
Online Cameras

 


      

Current Conditions in Oskaloosa
12/5/2021 8:34:53 PM

49°F
Feels Like 42
Clouds
Humidity
46%
Pressure
29.94"
Wind
20 mph (NNW)
Dew Point
29°F
UV Index
0/10 (Low)
Visibility
6 mi

Hourly Forecast

Date & Time Sun, Dec 5
8:00 PM
Sun, Dec 5
9:00 PM
Sun, Dec 5
10:00 PM
Sun, Dec 5
11:00 PM
Mon, Dec 6
12:00 AM
Mon, Dec 6
1:00 AM
Mon, Dec 6
2:00 AM
Mon, Dec 6
3:00 AM
Mon, Dec 6
4:00 AM
Mon, Dec 6
5:00 AM
Mon, Dec 6
6:00 AM
Mon, Dec 6
7:00 AM
Mon, Dec 6
8:00 AM
Mon, Dec 6
9:00 AM
Mon, Dec 6
10:00 AM
Mon, Dec 6
11:00 AM
Mon, Dec 6
12:00 PM
Mon, Dec 6
1:00 PM
Mon, Dec 6
2:00 PM
Mon, Dec 6
3:00 PM
Mon, Dec 6
4:00 PM
Mon, Dec 6
5:00 PM
Mon, Dec 6
6:00 PM
Mon, Dec 6
7:00 PM
Mon, Dec 6
8:00 PM
Mon, Dec 6
9:00 PM
Mon, Dec 6
10:00 PM
Mon, Dec 6
11:00 PM
Tue, Dec 7
12:00 AM
Tue, Dec 7
1:00 AM
Tue, Dec 7
2:00 AM
Tue, Dec 7
3:00 AM
Tue, Dec 7
4:00 AM
Tue, Dec 7
5:00 AM
Tue, Dec 7
6:00 AM
Tue, Dec 7
7:00 AM
Tue, Dec 7
8:00 AM
Tue, Dec 7
9:00 AM
Tue, Dec 7
10:00 AM
Tue, Dec 7
11:00 AM
Tue, Dec 7
12:00 PM
Tue, Dec 7
1:00 PM
Tue, Dec 7
2:00 PM
Tue, Dec 7
3:00 PM
Tue, Dec 7
4:00 PM
Tue, Dec 7
5:00 PM
Tue, Dec 7
6:00 PM
Tue, Dec 7
7:00 PM
Condition
Clouds

Clouds

Clouds

Clouds

Clouds

Clouds

Clouds

Clouds

Clouds

Clouds

Clouds

Clear

Clear

Clear

Clear

Clouds

Clouds

Clouds

Clouds

Clouds

Clouds

Clouds

Clouds

Clouds

Clouds

Clouds

Clouds

Clouds

Clouds

Clouds

Clouds

Clouds

Clouds

Clouds

Clouds

Clouds

Clouds

Clouds

Clouds

Clouds

Clouds

Clouds

Clouds

Clouds

Clouds

Clouds

Clouds

Clouds
Temperature 49°F49°F48°F47°F44°F41°F36°F34°F32°F32°F31°F30°F29°F31°F33°F34°F36°F36°F36°F36°F35°F32°F31°F31°F30°F30°F30°F30°F31°F31°F31°F31°F31°F31°F31°F31°F32°F33°F36°F39°F42°F43°F43°F43°F42°F40°F39°F38°F
Feels Like 42°F42°F41°F39°F35°F30°F25°F23°F22°F20°F19°F19°F20°F21°F23°F25°F27°F27°F28°F29°F29°F27°F26°F26°F24°F24°F23°F23°F22°F22°F21°F21°F22°F22°F22°F22°F23°F23°F26°F30°F34°F36°F37°F37°F37°F35°F34°F32°F
Cloudiness 77%79%80%82%85%96%100%73%57%45%38%0%0%0%0%19%30%100%100%100%100%100%100%100%100%100%100%100%100%100%100%100%100%100%100%100%100%100%100%100%100%100%100%100%100%100%100%100%
Visibility 6 mi6 mi6 mi6 mi6 mi6 mi6 mi6 mi6 mi6 mi6 mi6 mi6 mi6 mi6 mi6 mi6 mi6 mi6 mi6 mi6 mi6 mi6 mi6 mi6 mi6 mi6 mi6 mi6 mi6 mi6 mi6 mi6 mi6 mi6 mi6 mi6 mi6 mi6 mi6 mi6 mi6 mi6 mi6 mi6 mi6 mi6 mi6 mi
Precipitation 0%0%0%0%0%0%0%0%0%0%0%0%0%0%0%0%0%0%0%0%0%0%0%0%0%0%0%0%0%0%0%0%0%0%0%0%0%0%0%0%0%0%0%0%0%0%0%0%
Humidity 43%46%44%42%39%36%36%39%41%44%47%49%51%48%43%40%38%34%30%27%26%28%30%30%31%29%30%29%30%31%31%33%36%39%42%44%43%41%37%34%33%33%34%34%37%41%44%46%
Dew Point 28°F29°F28°F26°F22°F18°F11°F11°F11°F12°F12°F13°F13°F13°F13°F12°F12°F10°F7°F5°F3°F3°F3°F3°F2°F2°F1°F2°F3°F4°F4°F5°F8°F9°F11°F12°F12°F12°F12°F13°F15°F16°F16°F17°F18°F18°F18°F18°F
Pressure 29.94"29.94"29.94"30"30.03"30.09"30.18"30.24"30.27"30.3"30.3"30.36"30.39"30.39"30.42"30.42"30.39"30.36"30.33"30.33"30.33"30.33"30.33"30.33"30.33"30.3"30.3"30.27"30.21"30.21"30.18"30.15"30.15"30.12"30.12"30.12"30.12"30.09"30.09"30.06"30.03"30"29.94"29.94"29.94"29.97"29.97"29.97"
Wind Speed 19 mph20 mph21.4 mph21.7 mph23.2 mph23.5 mph21.4 mph17.1 mph16.9 mph17.7 mph16 mph14.1 mph11.8 mph13.6 mph13.4 mph13.4 mph13.6 mph13 mph11.8 mph10.3 mph8 mph5 mph4.9 mph5 mph5.4 mph6.4 mph6.9 mph7.7 mph10.9 mph11.1 mph12.4 mph13.2 mph11.7 mph12 mph12.1 mph12.3 mph12.1 mph14.3 mph15.3 mph15.3 mph13.7 mph12.2 mph11.9 mph11 mph8.8 mph6.7 mph6.7 mph7.4 mph
Wind
Direction
337°
NNW
332°
NNW
335°
NNW
340°
NNW
335°
NNW
335°
NNW
334°
NNW
327°
NNW
328°
NNW
329°
NNW
328°
NNW
328°
NNW
326°
NW
329°
NNW
327°
NNW
322°
NW
323°
NW
326°
NW
332°
NNW
333°
NNW
339°
NNW

N
13°
NNE
50°
NE
88°
E
103°
ESE
120°
ESE
136°
SE
140°
SE
146°
SE
152°
SSE
149°
SSE
148°
SSE
151°
SSE
147°
SSE
151°
SSE
152°
SSE
154°
SSE
166°
SSE
178°
S
189°
S
196°
SSW
201°
SSW
203°
SSW
199°
SSW
184°
S
180°
S
181°
S

Daily Forecast

Date High Low Precip. Humidity
Today
Dec 5

Clouds
64 °F
44 °F
1%
53%
Monday
Dec 6

Clouds
44 °F
29 °F
0%
38%
Tuesday
Dec 7

Clouds
43 °F
31 °F
0%
33%
Wednesday
Dec 8

Clouds
53 °F
31 °F
0%
33%
Thursday
Dec 9

Clouds
63 °F
45 °F
0%
31%
Friday
Dec 10

Clouds
70 °F
45 °F
0%
31%
Saturday
Dec 11

Clouds
46 °F
35 °F
0%
36%
Sunday
Dec 12

Clear
54 °F
32 °F
0%
17%
Monday
Dec 13

Clouds
56 °F
38 °F
0%
27%
Tuesday
Dec 14

Clouds
62 °F
41 °F
0%
31%
Wednesday
Dec 15

Clear
57 °F
39 °F
0%
32%
Thursday
Dec 16

Clear
63 °F
40 °F
0%
46%
Friday
Dec 17

Clouds
63 °F
52 °F
0%
50%
Saturday
Dec 18

Clouds
61 °F
55 °F
0%
32%
Sunday
Dec 19

Clouds
72 °F
55 °F
0%
49%
Monday
Dec 20

Clouds
63 °F
36 °F
16%
49%

Temperature 8-14 Day Outlook



Precipitation 8-14 Day Outlook




Quick Links
Perry Lake News
Perry Lake Photos
Perry Lake Videos




About Us
Contact Us
Site Map
Search Site
Advertise With Us
   
Perry.USLakes.info
THE PERRY LAKE WEBSITE

Copyright 2021, Lakes Online
Privacy    |    Legal